Preview of NWS' New Version of Forecast
This preview is not operational and should not be used for support decisions.

Regional Weather Roundup (RWR)

Issued by National Weather Service (NWS)

                            
000
ASUS44 KMEG 180000
RWRTN 
TENNESSEE HOURLY STATE WEATHER ROUNDUP
NATIONAL WEATHER SERVICE MEMPHIS TN
700 PM CDT MON JUN 17 2019

TNZ002-004-019-021-049-052-054-088>092-180100-
WEST TENNESSEE
  
CITY           SKY/WX    TMP DP  RH WIND       PRES   REMARKS
MEMPHIS INTL   PTSUNNY   83  72  69 S5        29.91S                  
NWS MEMPHIS      N/A     83 N/A N/A MISG        N/A                   
JACKSON        RAIN      76  72  87 SW16G23   29.95R FOG              
DYERSBURG      PTSUNNY   81  71  71 S3        29.91S                  
$$

TNZ008-025-027-028-033-062-065-066-180100-
NORTH MIDDLE TENNESSEE
  
CITY           SKY/WX    TMP DP  RH WIND       PRES   REMARKS
NASHVILLE      LGT RAIN  79  68  69 W3        29.96R                  
CLARKSVILLE    PTSUNNY   81  68  64 W7        29.94R                  
SMYRNA         PTSUNNY   77  71  82 CALM      29.96R                  
CROSSVILLE     FAIR      72  67  84 CALM      30.05R                  
$$

TNZ061-075-076-078-094-096-097-180100-
SOUTH MIDDLE TENNESSEE
  
CITY           SKY/WX    TMP DP  RH WIND       PRES   REMARKS
$$

TNZ017-018-042-046-047-180100-
NORTHEAST TENNESSEE
  
CITY           SKY/WX    TMP DP  RH WIND       PRES   REMARKS
TRI CITIES     CLOUDY    73  69  87 SE3       30.10R                  
$$

TNZ012-013-036-069-073-074-180100-
CENTRAL EAST TENNESSEE
  
CITY           SKY/WX    TMP DP  RH WIND       PRES   REMARKS
KNOXVILLE      LGT RAIN  77  69  76 S8        30.00F                  
OAK RIDGE      FAIR      79  69  71 CALM      30.03R                  
$$

TNZ083-085-099-180100-
SOUTHEAST TENNESSEE
  
CITY           SKY/WX    TMP DP  RH WIND       PRES   REMARKS
CHATTANOOGA    MOCLDY    80  74  81 N5        29.98S                  
$$

SKY/WX REPORTED AS FAIR MEANS FEW OR NO CLOUDS BELOW
12 THOUSAND FEET.